sat.trackr.live / text

‹ back to catalog

STARLINK-30976

NORAD 58447 · 2023-183L

PAYLOAD ACTIVE UNKNOWN

§ Identity

Operator
Country
US
Launch date
2023-11-28
Launch site
AFETR
Launch vehicle
Mass (kg)
RCS (m²)

Purposes: comms

External: N2YO · Heavens-Above · Gunter

§ Orbital elements

Epoch: 2026-05-24T20:35:14.846208Z

Period
94.27 min
Inclination
43.0025°
Eccentricity
0.0001656
Mean motion
15.27581946 rev/d
Perigee alt
481.9 km
Apogee alt
484.2 km
Semi-major
6,861.2 km
B*
1.8943e-5
RAAN
331.4576°
Arg perigee
261.1610°
Mean anomaly
98.9054°
Rev number
13,838

§ Raw data

STARLINK-309761 58447U 23183L   26144.85781072  .00000259  00000+0  18943-4 0  99942 58447  43.0025 331.4576 0001656 261.1610  98.9054 15.27581946138384

JSON: /api/v1/satellites/58447 · /tle

For live sub-satellite position, see the globe view (requires WebGL).

§ Visibility from observer

Set your observer location to see the next 7 days of passes ≥ 10°. The values pass through the URL so the page stays shareable.

No JS? Fill the form by hand. The geolocation button needs JavaScript.